| time (UTC) | temp F | wind direction | speed knots | gust knots | rain 1hr in | rain 24hr in | rain mn in | humidity % | barometer mb |
| 20260902174023 | 79 | 229 | 1.7 | 5.2 | 0.00 | 0.00 | 0.00 | 56 | 1015.1 |
| 20260902173520 | 79 | 228 | 1.7 | 5.2 | 0.00 | 0.00 | 0.00 | 56 | 1015.3 |
| 20260902173037 | 78 | 26 | 0.0 | 3.5 | 0.00 | 0.00 | 0.00 | 56 | 1015.4 |
| 20260902172521 | 78 | 0 | 0.0 | 2.6 | 0.00 | 0.00 | 0.00 | 60 | 1015.3 |
| 20260902172019 | 77 | 0 | 0.0 | 2.6 | 0.00 | 0.00 | 0.00 | 62 | 1015.2 |
| 20260902171539 | 76 | 0 | 0.9 | 4.3 | 0.00 | 0.00 | 0.00 | 65 | 1015.2 |
| 20260902171023 | 76 | 147 | 1.7 | 4.3 | 0.00 | 0.00 | 0.00 | 65 | 1015.1 |
| 20260902170523 | 76 | 135 | 2.6 | 4.3 | 0.00 | 0.00 | 0.00 | 63 | 1015.0 |
| 20260902170036 | 76 | 148 | 1.7 | 5.2 | 0.00 | 0.00 | 0.00 | 68 | 1014.9 |
| 20260902165528 | 76 | 148 | 0.9 | 5.2 | 0.00 | 0.00 | 0.00 | 68 | 1015.0 |
| 20260902165020 | 76 | 142 | 2.6 | 4.3 | 0.00 | 0.00 | 0.00 | 66 | 1015.0 |
| 20260902164537 | 76 | 152 | 0.0 | 4.3 | 0.00 | 0.00 | 0.00 | 68 | 1015.1 |
| 20260902164019 | 75 | 152 | 0.9 | 4.3 | 0.00 | 0.00 | 0.00 | 69 | 1015.1 |
| 20260902163520 | 75 | 152 | 1.7 | 4.3 | 0.00 | 0.00 | 0.00 | 67 | 1015.0 |
| 20260902163032 | 75 | 134 | 1.7 | 4.3 | 0.00 | 0.00 | 0.00 | 66 | 1015.1 |
| 20260902162516 | 75 | 156 | 1.7 | 6.1 | 0.00 | 0.00 | 0.00 | 67 | 1015.2 |
| 20260902162016 | 75 | 169 | 0.9 | 6.1 | 0.00 | 0.00 | 0.00 | 67 | 1015.1 |
| 20260902161539 | 74 | 155 | 2.6 | 6.1 | 0.00 | 0.00 | 0.00 | 69 | 1015.2 |
| 20260902161022 | 74 | 174 | 0.9 | 5.2 | 0.00 | 0.00 | 0.00 | 67 | 1015.1 |
| 20260902160525 | 74 | 174 | 1.7 | 4.3 | 0.00 | 0.00 | 0.00 | 70 | 1015.2 |
| 20260902160046 | 74 | 174 | 0.9 | 4.3 | 0.00 | 0.00 | 0.00 | 71 | 1015.2 |
| 20260902155521 | 74 | 174 | 0.9 | 4.3 | 0.00 | 0.00 | 0.00 | 69 | 1015.1 |
| 20260902155021 | 73 | 174 | 0.9 | 3.5 | 0.00 | 0.00 | 0.00 | 70 | 1015.2 |
| 20260902154536 | 74 | 178 | 0.9 | 3.5 | 0.00 | 0.00 | 0.00 | 72 | 1015.2 |
| 20260902154019 | 73 | 178 | 0.9 | 3.5 | 0.00 | 0.00 | 0.00 | 72 | 1015.3 |
| 20260902153519 | 73 | 178 | 0.9 | 3.5 | 0.00 | 0.00 | 0.00 | 71 | 1015.3 |
| 20260902153034 | 72 | 0 | 0.9 | 3.5 | 0.00 | 0.00 | 0.00 | 76 | 1015.3 |
| 20260902152518 | 72 | 178 | 0.9 | 3.5 | 0.00 | 0.00 | 0.00 | 75 | 1015.3 |
| 20260902152016 | 72 | 178 | 0.9 | 4.3 | 0.00 | 0.00 | 0.00 | 76 | 1015.1 |
| 20260902151533 | 71 | 172 | 1.7 | 4.3 | 0.00 | 0.00 | 0.00 | 77 | 1015.3 |
| 20260902151019 | 71 | 172 | 0.9 | 4.3 | 0.00 | 0.00 | 0.00 | 77 | 1015.2 |
| 20260902150520 | 71 | 172 | 0.9 | 4.3 | 0.00 | 0.00 | 0.00 | 77 | 1015.1 |
| 20260902150035 | 71 | 172 | 1.7 | 4.3 | 0.00 | 0.00 | 0.00 | 77 | 1015.2 |
| 20260902145521 | 71 | 189 | 0.9 | 3.5 | 0.00 | 0.00 | 0.00 | 77 | 1015.2 |
| 20260902145023 | 70 | 0 | 1.7 | 7.0 | 0.00 | 0.00 | 0.00 | 78 | 1015.3 |
| 20260902144534 | 70 | 189 | 2.6 | 7.0 | 0.00 | 0.00 | 0.00 | 79 | 1015.3 |
| 20260902144018 | 70 | 186 | 2.6 | 6.1 | 0.00 | 0.00 | 0.00 | 78 | 1015.2 |
| 20260902143519 | 70 | 150 | 1.7 | 7.8 | 0.00 | 0.00 | 0.00 | 81 | 1015.1 |
| 20260902143034 | 69 | 182 | 3.5 | 7.8 | 0.00 | 0.00 | 0.00 | 79 | 1015.2 |
| 20260902142518 | 69 | 171 | 2.6 | 8.7 | 0.00 | 0.00 | 0.00 | 79 | 1015.5 |
| 20260902142020 | 69 | 189 | 4.3 | 8.7 | 0.00 | 0.00 | 0.00 | 80 | 1015.6 |
| 20260902141535 | 69 | 184 | 1.7 | 7.0 | 0.00 | 0.00 | 0.00 | 81 | 1015.6 |
| 20260902141021 | 69 | 222 | 1.7 | 7.0 | 0.00 | 0.00 | 0.00 | 81 | 1015.7 |
| 20260902140521 | 69 | 225 | 3.5 | 7.0 | 0.00 | 0.00 | 0.00 | 81 | 1015.6 |
| 20260902140036 | 69 | 186 | 2.6 | 7.0 | 0.00 | 0.00 | 0.00 | 81 | 1015.7 |
| 20260902135522 | 68 | 190 | 2.6 | 7.0 | 0.00 | 0.00 | 0.00 | 82 | 1015.7 |
| 20260902135020 | 68 | 225 | 2.6 | 6.1 | 0.00 | 0.00 | 0.00 | 82 | 1015.8 |
| 20260902134535 | 68 | 205 | 2.6 | 6.1 | 0.00 | 0.00 | 0.00 | 83 | 1015.9 |
| 20260902134018 | 67 | 200 | 1.7 | 7.0 | 0.00 | 0.00 | 0.00 | 83 | 1016.0 |
| 20260902133521 | 67 | 219 | 2.6 | 7.0 | 0.00 | 0.00 | 0.00 | 83 | 1016.0 |
| 20260902133035 | 67 | 188 | 2.6 | 7.0 | 0.00 | 0.00 | 0.00 | 86 | 1016.1 |
| 20260902132517 | 66 | 190 | 0.9 | 4.3 | 0.00 | 0.00 | 0.00 | 88 | 1016.0 |
| 20260902132020 | 65 | 0 | 1.7 | 3.5 | 0.00 | 0.00 | 0.00 | 87 | 1016.0 |
| 20260902131536 | 65 | 209 | 1.7 | 3.5 | 0.00 | 0.00 | 0.00 | 88 | 1016.0 |
| 20260902131020 | 64 | 209 | 0.0 | 0.9 | 0.00 | 0.00 | 0.00 | 89 | 1015.8 |
| 20260902130520 | 64 | 0 | 0.0 | 0.0 | 0.00 | 0.00 | 0.00 | 90 | 1015.7 |
| 20260902130035 | 64 | 0 | 0.0 | 0.0 | 0.00 | 0.00 | 0.00 | 90 | 1015.8 |
| 20260902125522 | 63 | 0 | 0.0 | 0.0 | 0.00 | 0.00 | 0.00 | 91 | 1015.7 |
| 20260902125024 | 63 | 0 | 0.0 | 0.0 | 0.00 | 0.00 | 0.00 | 92 | 1015.8 |
| 20260902124537 | 63 | 0 | 0.0 | 0.0 | 0.00 | 0.00 | 0.00 | 93 | 1015.9 |
| 20260902124017 | 63 | 0 | 0.0 | 1.7 | 0.00 | 0.00 | 0.00 | 94 | 1015.9 |
| 20260902123516 | 62 | 0 | 0.0 | 1.7 | 0.00 | 0.00 | 0.00 | 95 | 1015.6 |
| 20260902123036 | 61 | 0 | 0.0 | 0.0 | 0.00 | 0.00 | 0.00 | 95 | 1015.6 |
| 20260902122520 | 60 | 0 | 0.0 | 0.0 | 0.00 | 0.00 | 0.00 | 94 | 1015.4 |
| 20260902122019 | 60 | 0 | 0.0 | 0.0 | 0.00 | 0.00 | 0.00 | 94 | 1015.4 |
| 20260902121533 | 60 | 0 | 0.0 | 0.0 | 0.00 | 0.00 | 0.00 | 94 | 1015.3 |
| 20260902121020 | 60 | 0 | 0.0 | 0.0 | 0.00 | 0.00 | 0.00 | 94 | 1015.2 |
| 20260902120521 | 60 | 0 | 0.0 | 0.0 | 0.00 | 0.00 | 0.00 | 93 | 1015.2 |
| 20260902120037 | 60 | 0 | 0.0 | 0.0 | 0.00 | 0.00 | 0.00 | 92 | 1015.2 |
| 20260902115520 | 60 | 0 | 0.0 | 0.0 | 0.00 | 0.00 | 0.00 | 92 | 1015.1 |
| 20260902115020 | 61 | 0 | 0.0 | 0.0 | 0.00 | 0.00 | 0.00 | 93 | 1015.0 |
| 20260902114607 | 61 | 0 | 0.0 | 0.0 | 0.00 | 0.00 | 0.00 | 92 | 1015.0 |
| 20260902114019 | 61 | 0 | 0.0 | 0.0 | 0.00 | 0.00 | 0.00 | 92 | 1015.0 |
| 20260902113516 | 61 | 0 | 0.0 | 0.0 | 0.00 | 0.00 | 0.00 | 92 | 1015.0 |
| 20260902113035 | 61 | 0 | 0.0 | 0.0 | 0.00 | 0.00 | 0.00 | 91 | 1014.9 |
| 20260902112519 | 61 | 0 | 0.0 | 0.0 | 0.00 | 0.00 | 0.00 | 90 | 1014.7 |
| 20260902112021 | 61 | 0 | 0.0 | 0.0 | 0.00 | 0.00 | 0.00 | 90 | 1014.6 |
| 20260902111535 | 62 | 0 | 0.0 | 0.0 | 0.00 | 0.00 | 0.00 | 90 | 1014.7 |
| 20260902111020 | 62 | 0 | 0.0 | 0.0 | 0.00 | 0.00 | 0.00 | 89 | 1014.7 |
| 20260902110523 | 62 | 0 | 0.0 | 0.0 | 0.00 | 0.00 | 0.00 | 87 | 1014.4 |
| 20260902110032 | 63 | 0 | 0.0 | 0.0 | 0.00 | 0.00 | 0.00 | 88 | 1014.6 |
| 20260902105519 | 63 | 0 | 0.0 | 0.0 | 0.00 | 0.00 | 0.00 | 87 | 1014.6 |
| 20260902105022 | 63 | 0 | 0.0 | 0.9 | 0.00 | 0.00 | 0.00 | 87 | 1014.6 |
| 20260902104536 | 63 | 0 | 0.0 | 0.9 | 0.00 | 0.00 | 0.00 | 86 | 1014.7 |
| 20260902104018 | 64 | 0 | 0.0 | 0.0 | 0.00 | 0.00 | 0.00 | 86 | 1014.7 |
| 20260902103518 | 64 | 0 | 0.0 | 0.0 | 0.00 | 0.00 | 0.00 | 85 | 1014.9 |
| 20260902103034 | 64 | 0 | 0.0 | 0.0 | 0.00 | 0.00 | 0.00 | 85 | 1014.9 |
| 20260902102518 | 65 | 0 | 0.0 | 0.0 | 0.00 | 0.00 | 0.00 | 85 | 1015.0 |
| 20260902102018 | 65 | 0 | 0.0 | 0.0 | 0.00 | 0.00 | 0.00 | 84 | 1015.1 |
| 20260902101534 | 65 | 0 | 0.0 | 0.0 | 0.00 | 0.00 | 0.00 | 84 | 1015.3 |
| 20260902101019 | 65 | 0 | 0.0 | 0.0 | 0.00 | 0.00 | 0.00 | 84 | 1015.3 |
| 20260902100520 | 65 | 0 | 0.0 | 0.0 | 0.00 | 0.00 | 0.00 | 83 | 1015.3 |
| 20260902100048 | 65 | 0 | 0.0 | 0.0 | 0.00 | 0.00 | 0.00 | 83 | 1015.4 |
| 20260902095520 | 65 | 0 | 0.0 | 0.9 | 0.00 | 0.00 | 0.00 | 83 | 1015.5 |
| 20260902095019 | 66 | 0 | 0.0 | 1.7 | 0.00 | 0.00 | 0.00 | 84 | 1015.7 |
| 20260902094535 | 66 | 0 | 0.0 | 2.6 | 0.00 | 0.00 | 0.00 | 84 | 1015.6 |
| 20260902094018 | 65 | 0 | 0.9 | 2.6 | 0.00 | 0.00 | 0.00 | 86 | 1015.8 |
| 20260902093518 | 65 | 0 | 0.0 | 1.7 | 0.00 | 0.00 | 0.00 | 87 | 1016.0 |
| 20260902093047 | 64 | 0 | 0.0 | 0.9 | 0.00 | 0.00 | 0.00 | 86 | 1015.9 |
| 20260902092521 | 63 | 0 | 0.0 | 0.0 | 0.00 | 0.00 | 0.00 | 85 | 1015.7 |
| 20260902092022 | 63 | 0 | 0.0 | 0.0 | 0.00 | 0.00 | 0.00 | 85 | 1015.6 |
| 20260902091537 | 64 | 0 | 0.0 | 0.0 | 0.00 | 0.00 | 0.00 | 86 | 1015.5 |
| 20260902091019 | 64 | 0 | 0.0 | 0.0 | 0.00 | 0.00 | 0.00 | 86 | 1015.3 |
| 20260902090518 | 64 | 0 | 0.0 | 0.0 | 0.00 | 0.00 | 0.00 | 88 | 1015.2 |
| 20260902090034 | 64 | 0 | 0.0 | 0.0 | 0.00 | 0.00 | 0.00 | 87 | 1015.1 |
| 20260902085515 | 64 | 0 | 0.0 | 0.0 | 0.00 | 0.00 | 0.00 | 86 | 1015.1 |
| 20260902085016 | 64 | 0 | 0.0 | 0.0 | 0.00 | 0.00 | 0.00 | 85 | 1014.9 |
| 20260902084534 | 64 | 0 | 0.0 | 0.0 | 0.00 | 0.00 | 0.00 | 84 | 1014.9 |
| 20260902084023 | 64 | 0 | 0.0 | 0.0 | 0.00 | 0.00 | 0.00 | 86 | 1015.0 |
| 20260902083520 | 64 | 0 | 0.0 | 0.0 | 0.00 | 0.00 | 0.00 | 86 | 1015.0 |
| 20260902083039 | 64 | 0 | 0.0 | 0.0 | 0.00 | 0.00 | 0.00 | 84 | 1014.9 |
| 20260902082521 | 64 | 0 | 0.0 | 0.0 | 0.00 | 0.00 | 0.00 | 84 | 1014.9 |
| 20260902082021 | 64 | 0 | 0.0 | 0.0 | 0.00 | 0.00 | 0.00 | 84 | 1015.0 |
| 20260902081535 | 64 | 0 | 0.0 | 0.0 | 0.00 | 0.00 | 0.00 | 83 | 1015.1 |
| 20260902081018 | 64 | 0 | 0.0 | 0.0 | 0.00 | 0.00 | 0.00 | 82 | 1015.0 |
| 20260902080518 | 64 | 0 | 0.0 | 0.0 | 0.00 | 0.00 | 0.00 | 82 | 1015.0 |
| 20260902080033 | 64 | 0 | 0.0 | 0.0 | 0.00 | 0.00 | 0.00 | 83 | 1014.9 |
| 20260902075517 | 64 | 0 | 0.0 | 0.0 | 0.00 | 0.00 | 0.00 | 84 | 1014.8 |
| 20260902075025 | 65 | 0 | 0.0 | 0.0 | 0.00 | 0.00 | 0.00 | 83 | 1014.7 |
| 20260902074539 | 65 | 0 | 0.0 | 0.0 | 0.00 | 0.00 | 0.00 | 82 | 1014.6 |
| 20260902074020 | 65 | 0 | 0.0 | 0.0 | 0.00 | 0.00 | 0.00 | 82 | 1015.0 |
| 20260902073520 | 65 | 0 | 0.0 | 0.0 | 0.00 | 0.00 | 0.00 | 82 | 1015.2 |
| 20260902073036 | 65 | 0 | 0.0 | 0.0 | 0.00 | 0.00 | 0.00 | 84 | 1015.3 |
| 20260902072519 | 65 | 0 | 0.0 | 0.0 | 0.00 | 0.00 | 0.00 | 83 | 1015.2 |
| 20260902072016 | 65 | 0 | 0.0 | 0.0 | 0.00 | 0.00 | 0.00 | 85 | 1015.4 |
| 20260902071533 | 65 | 0 | 0.0 | 0.0 | 0.00 | 0.00 | 0.00 | 82 | 1015.3 |
| 20260902071016 | 66 | 0 | 0.0 | 0.0 | 0.00 | 0.00 | 0.00 | 81 | 1015.0 |
| 20260902070521 | 66 | 0 | 0.0 | 0.0 | 0.00 | 0.00 | 0.00 | 82 | 1015.1 |
| 20260902070035 | 66 | 0 | 0.0 | 0.0 | 0.00 | 0.00 | 0.00 | 81 | 1015.3 |
| 20260902065520 | 66 | 0 | 0.0 | 0.0 | 0.00 | 0.00 | 0.00 | 80 | 1015.0 |
| 20260902065020 | 66 | 0 | 0.0 | 0.0 | 0.00 | 0.00 | 0.00 | 83 | 1014.8 |
| 20260902064540 | 66 | 0 | 0.0 | 0.0 | 0.00 | 0.00 | 0.00 | 78 | 1014.9 |
| 20260902064022 | 66 | 0 | 0.0 | 0.0 | 0.00 | 0.00 | 0.00 | 78 | 1014.9 |
| 20260902063525 | 66 | 0 | 0.0 | 0.0 | 0.00 | 0.00 | 0.00 | 78 | 1014.8 |
| 20260902063036 | 66 | 0 | 0.0 | 0.0 | 0.00 | 0.00 | 0.00 | 79 | 1014.7 |
| 20260902062519 | 66 | 0 | 0.0 | 0.0 | 0.00 | 0.00 | 0.00 | 80 | 1015.0 |
| 20260902062021 | 66 | 0 | 0.0 | 0.0 | 0.00 | 0.00 | 0.00 | 80 | 1015.3 |
| 20260902061544 | 66 | 0 | 0.0 | 0.0 | 0.00 | 0.00 | 0.00 | 77 | 1015.2 |
| 20260902061021 | 66 | 0 | 0.0 | 0.9 | 0.00 | 0.00 | 0.00 | 77 | 1015.2 |
| 20260902060519 | 66 | 0 | 0.0 | 0.9 | 0.00 | 0.00 | 0.00 | 77 | 1015.2 |
| 20260902060040 | 66 | 0 | 0.0 | 0.0 | 0.00 | 0.00 | 0.00 | 76 | 1015.2 |
| 20260902055525 | 66 | 0 | 0.0 | 0.0 | 0.00 | 0.00 | 0.00 | 76 | 1015.4 |
| 20260902055020 | 66 | 0 | 0.0 | 0.0 | 0.00 | 0.00 | 0.00 | 76 | 1015.4 |
| 20260902054540 | 66 | 0 | 0.0 | 0.0 | 0.00 | 0.00 | 0.00 | 75 | 1015.2 |
| 20260902054021 | 67 | 0 | 0.0 | 0.0 | 0.00 | 0.00 | 0.00 | 75 | 1015.2 |
| 20260902053521 | 67 | 0 | 0.0 | 0.0 | 0.00 | 0.00 | 0.00 | 74 | 1015.1 |
| 20260902053036 | 67 | 0 | 0.0 | 0.0 | 0.00 | 0.00 | 0.00 | 75 | 1015.1 |
| 20260902052521 | 67 | 0 | 0.0 | 0.0 | 0.00 | 0.00 | 0.00 | 75 | 1015.3 |
| 20260902052026 | 66 | 0 | 0.0 | 0.0 | 0.00 | 0.00 | 0.00 | 75 | 1015.3 |
| 20260902051535 | 66 | 0 | 0.0 | 0.0 | 0.00 | 0.00 | 0.00 | 76 | 1015.3 |
| 20260902051018 | 66 | 0 | 0.0 | 0.0 | 0.00 | 0.00 | 0.00 | 76 | 1015.4 |
| 20260902050518 | 66 | 0 | 0.0 | 0.0 | 0.00 | 0.00 | 0.00 | 77 | 1015.5 |
| 20260902050040 | 66 | 0 | 0.0 | 0.0 | 0.00 | 0.00 | 0.00 | 77 | 1015.5 |
| 20260902045519 | 66 | 0 | 0.0 | 0.0 | 0.00 | 0.00 | 0.00 | 76 | 1015.5 |
| 20260902045020 | 66 | 0 | 0.0 | 0.0 | 0.00 | 0.00 | 0.00 | 76 | 1015.5 |
| 20260902044535 | 66 | 0 | 0.0 | 0.0 | 0.00 | 0.00 | 0.00 | 75 | 1015.4 |
| 20260902044020 | 66 | 0 | 0.0 | 0.0 | 0.00 | 0.00 | 0.00 | 76 | 1015.5 |
| 20260902043521 | 66 | 0 | 0.0 | 1.7 | 0.00 | 0.00 | 0.00 | 74 | 1015.6 |
| 20260902043036 | 66 | 0 | 0.0 | 1.7 | 0.00 | 0.00 | 0.00 | 75 | 1015.8 |
| 20260902042519 | 66 | 210 | 0.0 | 1.7 | 0.00 | 0.00 | 0.00 | 78 | 1015.8 |
| 20260902042019 | 66 | 0 | 0.0 | 0.0 | 0.00 | 0.00 | 0.00 | 77 | 1015.6 |
| 20260902041532 | 66 | 0 | 0.0 | 0.0 | 0.00 | 0.00 | 0.00 | 74 | 1015.7 |
| 20260902041016 | 66 | 0 | 0.0 | 0.0 | 0.00 | 0.00 | 0.00 | 74 | 1015.5 |
| 20260902040518 | 66 | 0 | 0.0 | 0.0 | 0.00 | 0.00 | 0.00 | 73 | 1015.5 |
| 20260902040034 | 66 | 0 | 0.0 | 0.0 | 0.00 | 0.00 | 0.00 | 73 | 1015.4 |
| 20260902035525 | 66 | 0 | 0.0 | 0.0 | 0.00 | 0.00 | 0.00 | 73 | 1015.3 |
| 20260902035026 | 66 | 0 | 0.0 | 0.0 | 0.00 | 0.00 | 0.00 | 73 | 1015.3 |
| 20260902034533 | 65 | 0 | 0.0 | 0.0 | 0.00 | 0.00 | 0.00 | 74 | 1015.4 |
| 20260902034019 | 65 | 0 | 0.0 | 0.0 | 0.00 | 0.00 | 0.00 | 74 | 1015.4 |
| 20260902033521 | 65 | 0 | 0.0 | 0.0 | 0.00 | 0.00 | 0.00 | 76 | 1015.4 |
| 20260902033041 | 65 | 0 | 0.0 | 0.0 | 0.00 | 0.00 | 0.00 | 78 | 1015.3 |
| 20260902032519 | 65 | 0 | 0.0 | 0.0 | 0.00 | 0.00 | 0.00 | 79 | 1015.3 |
| 20260902032024 | 65 | 0 | 0.0 | 0.0 | 0.00 | 0.00 | 0.00 | 79 | 1015.2 |
| 20260902031536 | 64 | 0 | 0.0 | 0.0 | 0.00 | 0.00 | 0.00 | 79 | 1015.2 |
| 20260902031018 | 64 | 0 | 0.0 | 0.0 | 0.00 | 0.00 | 0.00 | 78 | 1015.1 |
| 20260902030516 | 64 | 0 | 0.0 | 0.0 | 0.00 | 0.00 | 0.00 | 77 | 1015.0 |
| 20260902030035 | 64 | 0 | 0.0 | 0.0 | 0.00 | 0.00 | 0.00 | 76 | 1015.0 |
| 20260902025521 | 65 | 0 | 0.0 | 0.0 | 0.00 | 0.00 | 0.00 | 75 | 1015.3 |
| 20260902025022 | 65 | 0 | 0.0 | 0.0 | 0.00 | 0.00 | 0.00 | 73 | 1015.2 |
| 20260902024539 | 66 | 0 | 0.0 | 0.0 | 0.00 | 0.00 | 0.00 | 72 | 1015.1 |
| 20260902024018 | 67 | 0 | 0.0 | 0.0 | 0.00 | 0.00 | 0.00 | 71 | 1015.1 |
| 20260902023521 | 68 | 0 | 0.0 | 0.0 | 0.00 | 0.00 | 0.00 | 69 | 1015.0 |
| 20260902023039 | 68 | 0 | 0.0 | 0.0 | 0.00 | 0.00 | 0.00 | 68 | 1015.1 |
| 20260902022521 | 69 | 0 | 0.0 | 0.0 | 0.00 | 0.00 | 0.00 | 68 | 1015.1 |
| 20260902022020 | 69 | 0 | 0.0 | 0.0 | 0.00 | 0.00 | 0.00 | 70 | 1015.1 |
| 20260902021545 | 69 | 0 | 0.0 | 0.0 | 0.00 | 0.00 | 0.00 | 66 | 1015.2 |
| 20260902021016 | 69 | 0 | 0.0 | 0.0 | 0.00 | 0.00 | 0.00 | 66 | 1015.2 |
| 20260902020517 | 69 | 0 | 0.0 | 0.0 | 0.00 | 0.00 | 0.00 | 65 | 1015.1 |
| 20260902020035 | 70 | 0 | 0.0 | 0.0 | 0.00 | 0.00 | 0.00 | 65 | 1015.1 |
| 20260902015520 | 70 | 0 | 0.0 | 0.0 | 0.00 | 0.00 | 0.00 | 64 | 1015.0 |
| 20260902015023 | 70 | 0 | 0.0 | 0.0 | 0.00 | 0.00 | 0.00 | 65 | 1015.0 |
| 20260902014538 | 70 | 0 | 0.0 | 0.0 | 0.00 | 0.00 | 0.00 | 64 | 1014.9 |
| 20260902014020 | 71 | 0 | 0.0 | 0.0 | 0.00 | 0.00 | 0.00 | 63 | 1014.8 |
| 20260902013524 | 71 | 0 | 0.0 | 0.0 | 0.00 | 0.00 | 0.00 | 63 | 1014.7 |
| 20260902013037 | 71 | 0 | 0.0 | 0.0 | 0.00 | 0.00 | 0.00 | 63 | 1014.7 |
| 20260902012521 | 72 | 0 | 0.0 | 0.0 | 0.00 | 0.00 | 0.00 | 62 | 1014.7 |
| 20260902012019 | 72 | 0 | 0.0 | 0.0 | 0.00 | 0.00 | 0.00 | 60 | 1014.6 |
| 20260902011534 | 72 | 0 | 0.0 | 0.0 | 0.00 | 0.00 | 0.00 | 60 | 1014.6 |
| 20260902011019 | 73 | 0 | 0.0 | 0.0 | 0.00 | 0.00 | 0.00 | 59 | 1014.6 |
| 20260902010522 | 73 | 0 | 0.0 | 0.0 | 0.00 | 0.00 | 0.00 | 58 | 1014.5 |
| 20260902010032 | 73 | 0 | 0.0 | 0.0 | 0.00 | 0.00 | 0.00 | 58 | 1014.5 |
| 20260902005521 | 74 | 0 | 0.0 | 0.0 | 0.00 | 0.00 | 0.00 | 57 | 1014.5 |
| 20260902005020 | 74 | 0 | 0.0 | 0.0 | 0.00 | 0.00 | 0.00 | 57 | 1014.6 |
| 20260902004534 | 74 | 0 | 0.0 | 0.9 | 0.00 | 0.00 | 0.00 | 56 | 1014.5 |
| 20260902004023 | 75 | 0 | 0.0 | 0.9 | 0.00 | 0.00 | 0.00 | 56 | 1014.3 |
| 20260902003519 | 75 | 0 | 0.0 | 0.0 | 0.00 | 0.00 | 0.00 | 55 | 1014.3 |
| 20260902003037 | 75 | 0 | 0.0 | 0.0 | 0.00 | 0.00 | 0.00 | 55 | 1014.2 |
| 20260902002519 | 76 | 0 | 0.0 | 0.0 | 0.00 | 0.00 | 0.00 | 54 | 1014.2 |
| 20260902002019 | 76 | 0 | 0.0 | 1.7 | 0.00 | 0.00 | 0.00 | 53 | 1014.3 |
| 20260902001534 | 76 | 0 | 0.0 | 1.7 | 0.00 | 0.00 | 0.00 | 53 | 1014.4 |
| 20260902001019 | 77 | 0 | 0.0 | 1.7 | 0.00 | 0.00 | 0.00 | 53 | 1014.5 |
| 20260902000519 | 77 | 0 | 0.0 | 1.7 | 0.00 | 0.00 | 0.00 | 54 | 1014.4 |
| 20260902000037 | 77 | 0 | 0.0 | 1.7 | 0.00 | 0.00 | 0.00 | 52 | 1014.3 |
| 20260901235521 | 77 | 0 | 0.0 | 3.5 | 0.00 | 0.00 | 0.00 | 51 | 1014.4 |
| 20260901235021 | 77 | 0 | 0.0 | 3.5 | 0.00 | 0.00 | 0.00 | 51 | 1014.3 |
| 20260901234535 | 78 | 221 | 0.0 | 3.5 | 0.00 | 0.00 | 0.00 | 52 | 1014.2 |
| 20260901234021 | 78 | 0 | 0.0 | 6.1 | 0.00 | 0.00 | 0.00 | 51 | 1014.3 |
| 20260901233520 | 78 | 0 | 0.9 | 6.1 | 0.00 | 0.00 | 0.00 | 49 | 1014.1 |
| 20260901233052 | 78 | 228 | 1.7 | 6.1 | 0.00 | 0.00 | 0.00 | 50 | 1014.2 |
| 20260901232516 | 78 | 0 | 0.9 | 3.5 | 0.00 | 0.00 | 0.00 | 49 | 1014.2 |
| 20260901232021 | 79 | 0 | 0.9 | 4.3 | 0.00 | 0.00 | 0.00 | 47 | 1014.1 |
| 20260901231538 | 79 | 0 | 0.9 | 4.3 | 0.00 | 0.00 | 0.00 | 50 | 1014.1 |
| 20260901231020 | 79 | 250 | 0.9 | 4.3 | 0.00 | 0.00 | 0.00 | 51 | 1014.0 |
| 20260901230525 | 79 | 0 | 0.9 | 4.3 | 0.00 | 0.00 | 0.00 | 49 | 1014.1 |
| 20260901230038 | 79 | 0 | 0.9 | 5.2 | 0.00 | 0.00 | 0.00 | 48 | 1014.1 |
| 20260901225521 | 79 | 257 | 0.9 | 6.1 | 0.00 | 0.00 | 0.00 | 47 | 1014.0 |
| 20260901225020 | 79 | 218 | 0.9 | 6.1 | 0.00 | 0.00 | 0.00 | 47 | 1014.0 |
| 20260901224536 | 79 | 229 | 0.9 | 6.1 | 0.00 | 0.00 | 0.00 | 47 | 1014.0 |
| 20260901224016 | 79 | 0 | 0.9 | 8.7 | 0.00 | 0.00 | 0.00 | 46 | 1014.0 |
| 20260901223516 | 80 | 224 | 1.7 | 8.7 | 0.00 | 0.00 | 0.00 | 45 | 1013.9 |
| 20260901223036 | 80 | 232 | 1.7 | 8.7 | 0.00 | 0.00 | 0.00 | 45 | 1014.1 |
| 20260901222526 | 80 | 311 | 1.7 | 6.1 | 0.00 | 0.00 | 0.00 | 46 | 1014.1 |
| 20260901222022 | 81 | 244 | 0.9 | 2.6 | 0.00 | 0.00 | 0.00 | 48 | 1014.1 |
| 20260901221536 | 81 | 229 | 0.9 | 3.5 | 0.00 | 0.00 | 0.00 | 46 | 1014.0 |
| 20260901221024 | 80 | 275 | 0.9 | 5.2 | 0.00 | 0.00 | 0.00 | 47 | 1014.1 |
| 20260901220519 | 80 | 242 | 1.7 | 5.2 | 0.00 | 0.00 | 0.00 | 46 | 1014.0 |
| 20260901220036 | 80 | 193 | 0.9 | 6.1 | 0.00 | 0.00 | 0.00 | 48 | 1014.0 |
| 20260901215521 | 80 | 257 | 0.9 | 6.1 | 0.00 | 0.00 | 0.00 | 46 | 1014.1 |
| 20260901215020 | 80 | 264 | 0.9 | 6.1 | 0.00 | 0.00 | 0.00 | 46 | 1014.1 |
| 20260901214539 | 80 | 197 | 1.7 | 7.0 | 0.00 | 0.00 | 0.00 | 46 | 1014.1 |
| 20260901214016 | 80 | 229 | 1.7 | 7.0 | 0.00 | 0.00 | 0.00 | 46 | 1014.1 |
| 20260901213518 | 80 | 244 | 0.9 | 7.8 | 0.00 | 0.00 | 0.00 | 48 | 1014.1 |
| 20260901213040 | 80 | 263 | 2.6 | 7.8 | 0.00 | 0.00 | 0.00 | 50 | 1014.2 |
| 20260901212519 | 80 | 224 | 3.5 | 6.1 | 0.00 | 0.00 | 0.00 | 50 | 1014.2 |
| 20260901212021 | 80 | 227 | 0.9 | 7.8 | 0.00 | 0.00 | 0.00 | 50 | 1014.1 |
| 20260901211535 | 80 | 229 | 0.9 | 10.4 | 0.00 | 0.00 | 0.00 | 51 | 1014.1 |
| 20260901211022 | 80 | 224 | 4.3 | 10.4 | 0.00 | 0.00 | 0.00 | 51 | 1014.1 |
| 20260901210520 | 80 | 234 | 1.7 | 7.8 | 0.00 | 0.00 | 0.00 | 51 | 1014.1 |
| 20260901210035 | 80 | 223 | 2.6 | 9.6 | 0.00 | 0.00 | 0.00 | 51 | 1014.1 |
| 20260901205519 | 80 | 227 | 2.6 | 9.6 | 0.00 | 0.00 | 0.00 | 51 | 1014.0 |
| 20260901205021 | 80 | 209 | 3.5 | 9.6 | 0.00 | 0.00 | 0.00 | 52 | 1013.9 |
| 20260901204535 | 80 | 231 | 4.3 | 9.6 | 0.00 | 0.00 | 0.00 | 51 | 1014.0 |
| 20260901204021 | 80 | 226 | 2.6 | 8.7 | 0.00 | 0.00 | 0.00 | 50 | 1014.0 |
| 20260901203520 | 81 | 239 | 1.7 | 7.0 | 0.00 | 0.00 | 0.00 | 51 | 1013.9 |
| 20260901203056 | 81 | 226 | 0.9 | 7.0 | 0.00 | 0.00 | 0.00 | 48 | 1013.8 |
| 20260901202518 | 81 | 217 | 2.6 | 5.2 | 0.00 | 0.00 | 0.00 | 48 | 1013.9 |
| 20260901202019 | 82 | 262 | 0.9 | 4.3 | 0.00 | 0.00 | 0.00 | 46 | 1013.9 |
| 20260901201535 | 82 | 273 | 0.9 | 7.0 | 0.00 | 0.00 | 0.00 | 46 | 1014.0 |
| 20260901201021 | 82 | 229 | 1.7 | 7.0 | 0.00 | 0.00 | 0.00 | 46 | 1014.1 |
| 20260901200519 | 82 | 275 | 1.7 | 7.0 | 0.00 | 0.00 | 0.00 | 43 | 1014.1 |
| 20260901200041 | 82 | 259 | 1.7 | 11.3 | 0.00 | 0.00 | 0.00 | 46 | 1013.9 |
| 20260901195520 | 82 | 268 | 1.7 | 11.3 | 0.00 | 0.00 | 0.00 | 43 | 1014.1 |
| 20260901195022 | 83 | 225 | 2.6 | 7.8 | 0.00 | 0.00 | 0.00 | 42 | 1014.1 |
| 20260901194541 | 83 | 263 | 0.9 | 7.8 | 0.00 | 0.00 | 0.00 | 43 | 1014.2 |
| 20260901194021 | 83 | 232 | 1.7 | 12.2 | 0.00 | 0.00 | 0.00 | 43 | 1014.2 |
| 20260901193519 | 83 | 227 | 3.5 | 12.2 | 0.00 | 0.00 | 0.00 | 42 | 1014.3 |
| 20260901193040 | 84 | 225 | 0.9 | 3.5 | 0.00 | 0.00 | 0.00 | 43 | 1014.2 |
| 20260901192519 | 84 | 305 | 0.0 | 7.0 | 0.00 | 0.00 | 0.00 | 41 | 1014.3 |
| 20260901192018 | 84 | 305 | 0.0 | 7.0 | 0.00 | 0.00 | 0.00 | 41 | 1014.2 |
| 20260901191534 | 84 | 226 | 1.7 | 7.0 | 0.00 | 0.00 | 0.00 | 40 | 1014.3 |
| 20260901191021 | 84 | 306 | 0.9 | 7.8 | 0.00 | 0.00 | 0.00 | 40 | 1014.3 |
| 20260901190521 | 84 | 282 | 0.0 | 7.8 | 0.00 | 0.00 | 0.00 | 43 | 1014.4 |
| 20260901190037 | 84 | 228 | 3.5 | 7.8 | 0.00 | 0.00 | 0.00 | 44 | 1014.4 |
| 20260901185520 | 84 | 321 | 0.9 | 6.1 | 0.00 | 0.00 | 0.00 | 42 | 1014.4 |
| 20260901185021 | 84 | 250 | 0.9 | 6.1 | 0.00 | 0.00 | 0.00 | 40 | 1014.4 |
| 20260901184534 | 84 | 288 | 1.7 | 6.1 | 0.00 | 0.00 | 0.00 | 41 | 1014.4 |
| 20260901184019 | 84 | 267 | 0.9 | 7.8 | 0.00 | 0.00 | 0.00 | 42 | 1014.5 |
| 20260901183518 | 84 | 235 | 2.6 | 7.8 | 0.00 | 0.00 | 0.00 | 41 | 1014.7 |
| 20260901183039 | 84 | 266 | 1.7 | 10.4 | 0.00 | 0.00 | 0.00 | 38 | 1014.7 |
| 20260901182521 | 84 | 257 | 1.7 | 10.4 | 0.00 | 0.00 | 0.00 | 40 | 1014.8 |
| 20260901182020 | 85 | 240 | 0.9 | 6.1 | 0.00 | 0.00 | 0.00 | 42 | 1014.7 |
| 20260901181533 | 84 | 254 | 1.7 | 5.2 | 0.00 | 0.00 | 0.00 | 42 | 1014.8 |
| 20260901181022 | 84 | 300 | 0.9 | 6.1 | 0.00 | 0.00 | 0.00 | 41 | 1014.8 |
| 20260901180520 | 83 | 264 | 0.9 | 6.1 | 0.00 | 0.00 | 0.00 | 42 | 1014.9 |
| 20260901180033 | 83 | 210 | 1.7 | 6.1 | 0.00 | 0.00 | 0.00 | 45 | 1014.8 |
| 20260901175525 | 83 | 225 | 2.6 | 7.8 | 0.00 | 0.00 | 0.00 | 43 | 1014.9 |
| 20260901175021 | 82 | 271 | 1.7 | 8.7 | 0.00 | 0.00 | 0.00 | 43 | 1015.0 |
| 20260901174534 | 82 | 0 | 2.6 | 8.7 | 0.00 | 0.00 | 0.00 | 45 | 1014.9 |